User: anonymous   Login
Location: Carrer del Canonge
(41.4901°N, 2.2931°E)
Time: 21:49:45
(UTC+00:00)
Language:

Cosmos 494 Rocket - Orbit

View from above orbital plane
View from above orbital plane
View from above satellite
View from above satellite

Ground track
Ground track

The orbit data is extracted from the following two-line orbital elements,

1 06061U 72043B   21134.86337466  .00000037  00000-0  19937-4 0  9996
2 06061  74.0582  63.1100 0020432 198.1365 161.9064 14.40616143563647
Epoch (UTC): 14 May 2021 20:43:15
Eccentricity: 0.0020432
inclination: 74.0582°
perigee height: 742 km
apogee height: 771 km
right ascension of ascending node: 63.1100°
argument of perigee: 198.1365°
revolutions per day: 14.40616143
mean anomaly at epoch: 161.9064°
orbit number at epoch: 56364

The dashed part of the orbit path shows where the satellite is in the earth's shadow,  

DLR